This demonstration page uses our WeatherBlox Daily Observations layout. Learn more.

41.55636, -103.73856

Hourly Observations for April 4, 2020

Temp ( °F °C ) Dew Point ( °F °C ) Humidity (%) Winds ( mph kmh ) Pressure ( in mb ) Visibility ( mi km ) Precip ( " mm )
12:58 am 00:58 Partly Cloudy 37 2.9 12 -11.3 35 35 SE 15 24 30.21 1023 10 16.0934 0 0
1:58 am 01:58 Mostly Clear 32 0.1 13 -10.6 45 45 SE 15 24 30.21 1023 10 16.0934 0 0
2:58 am 02:58 Mostly Cloudy 31 -0.8 14 -10.2 49 49 SE 16 26 30.21 1023 10 16.0934 0 0
3:58 am 03:58 Mostly Cloudy 30 -1.1 13 -10.4 50 50 SE 15 24 30.2 1023 10 16.0934 0 0
4:58 am 04:58 Mostly Cloudy 29 -1.5 14 -10.2 52 52 SE 14 22 30.19 1022 10 16.0934 0 0
5:58 am 05:58 Partly Cloudy 28 -2.5 15 -9.5 59 59 SSE 21 33 30.16 1021 10 16.0934 0 0
6:58 am 06:58 Mostly Clear 27 -2.7 16 -9 62 62 S 29 46 30.11 1020 10 16.0934 0 0
7:58 am 07:58 Clear 27 -2.7 15 -9.2 61 61 S 33 54 30.07 1018 10 16.0934 0 0
8:58 am 08:58 Clear 27 -2.6 15 -9.6 59 59 S 35 56 30.03 1017 10 16.0934 0 0
9:58 am 09:58 Clear 27 -2.6 15 -9.7 59 59 S 36 57 30.01 1016 10 16.0934 0 0
10:58 am 10:58 Clear 27 -2.7 15 -9.6 59 59 SSW 36 57 30 1016 10 16.0934 0 0
11:58 am 11:58 Mostly Cloudy 28 -2.5 15 -9.7 58 58 SSW 36 57 30 1016 10 16.0934 0 0
12:58 pm 12:58 Sunny 27 -3 14 -9.8 60 60 SSW 29 46 30.02 1017 10 16.0934 0 0
1:58 pm 13:58 Sunny 29 -1.4 15 -9.6 54 54 SSW 29 46 30.02 1017 10 16.0934 0 0
2:58 pm 14:58 Sunny 35 1.5 15 -9.2 45 45 SSW 30 48 29.99 1016 10 16.0934 0 0
3:58 pm 15:58 Sunny 40 4.5 16 -9 37 37 SSW 28 44 29.98 1015 10 16.0934 0 0
4:58 pm 16:58 Sunny 46 7.5 17 -8.4 32 32 SSW 24 39 29.96 1015 10 16.0934 0 0
5:58 pm 17:58 Sunny 51 10.3 17 -8.3 26 26 SSW 23 37 29.93 1014 10 16.0934 0 0
6:58 pm 18:58 Sunny 55 12.6 17 -8.6 22 22 S 16 26 29.9 1013 10 16.0934 0 0
7:58 pm 19:58 Sunny 57 14 14 -10.2 18 18 S 15 24 29.86 1011 10 16.0934 0 0
8:58 pm 20:58 Sunny 58 14.6 14 -9.8 18 18 SSW 14 22 29.83 1010 10 16.0934 0 0
9:58 pm 21:58 Mostly Cloudy 58 14.6 12 -10.9 16 16 W 9 15 29.82 1010 10 16.0934 0 0
10:58 pm 22:58 Mostly Cloudy 59 14.8 12 -11.2 16 16 N 3 6 29.81 1009 10 16.0934 0 0
11:58 pm 23:58 Partly Cloudy 58 14.2 12 -10.9 17 17 Calm 29.82 1010 10 16.0934 0 0

Powered by AerisWeather